Surface/Precipitation History
02/08/2018 19:52  to  2/9/2018 19:52
Change End Date:
Date/Time
(MDT)
Sf
Temp Chem Water Layer Surface Precipitation
Sfc Pvt Sub Frz Factor Pct Dpth DpthThk IcePct Cond Salin FI Type Intens Accum Rate
02/09/2018 19:50 Ice Warning 3.6F - 29F 32F 15 2% - - 98% 0 mhos 502 - None None - -
02/09/2018 19:48 Ice Warning 3.6F - 29F 32F 15 2% - - 98% 0 mhos 500 - None None - -
02/09/2018 19:40 Ice Warning 3.7F - 29F 32F 15 2% - - 98% 0 mhos 499 - None None - -
02/09/2018 19:33 Ice Warning 3.7F - 29F 32F 10 2% - - 98% 0 mhos 498 - None None - -
02/09/2018 19:29 Ice Warning 3.7F - 29F 32F 10 2% - - 98% 0 mhos 495 - None None - -
02/09/2018 19:19 Ice Warning 4.1F - 29F 32F 10 2% - - 98% 0 mhos 491 - None None - -
02/09/2018 19:18 Ice Warning 4.5F - 29F 32F 10 2% - - 98% 0 mhos 482 - None None - -
02/09/2018 19:09 Ice Warning 5.0F - 29F 32F 15 2% - - 98% 0 mhos 469 - None None - -
02/09/2018 19:04 Ice Warning 4.8F - 29F 32F 10 2% - - 98% 0 mhos 475 - None None - -
02/09/2018 18:59 Ice Warning 5.2F - 29F 32F 10 2% - - 98% 0 mhos 453 - None None - -
02/09/2018 18:49 Ice Warning 5.5F - 29F 32F 10 1% - - 98% 0 mhos 445 - None None - -
02/09/2018 18:48 Ice Warning 5.5F - 29F 32F 10 1% - - 98% 0 mhos 450 - None None - -
02/09/2018 18:39 Ice Warning 6.1F - 29F 32F 10 1% - - 98% 1 mhos 432 - None None - -
02/09/2018 18:33 Ice Warning 6.3F - 29F 32F 15 1% - - 98% 1 mhos 427 - None None - -
02/09/2018 18:29 Ice Warning 6.4F - 29F 32F 15 1% - - 98% 1 mhos 426 - None None - -
Date/Time
(MDT)
Sf
Temp Chem Water Layer Surface Precipitation
Sfc Pvt Sub Frz Factor Pct Dpth DpthThk IcePct Cond Salin FI Type Intens Accum Rate
02/09/2018 18:19 Ice Warning 6.6F - 29F 32F 15 1% - - 99% 1 mhos 415 - None None - -
02/09/2018 18:18 Ice Warning 6.8F - 29F 32F 15 1% - - 99% 1 mhos 410 - None None - -
02/09/2018 18:09 Ice Warning 7.3F - 29F 32F 15 1% - - 99% 1 mhos 408 - None None - -
02/09/2018 18:03 Ice Warning 7.5F - 29F 32F 15 1% - - 99% 1 mhos 403 - None None - -
02/09/2018 17:59 Ice Warning 7.9F - 29F 32F 15 1% - - 99% 1 mhos 401 - None None - -
02/09/2018 17:49 Ice Warning 8.4F - 29F 32F 15 1% - - 99% 1 mhos 386 - None None - -
02/09/2018 17:48 Ice Warning 8.6F - 29F 32F 15 1% - - 99% 1 mhos 382 - None None - -
02/09/2018 17:39 Ice Warning 9.5F - 29F 32F 20 1% - - 99% 1 mhos 361 - None None - -
02/09/2018 17:33 Ice Warning 10.0F - 29F 32F 20 1% - - 99% 1 mhos 351 - None None - -
02/09/2018 17:29 Ice Warning 10.2F - 29F 32F 15 1% - - 99% 1 mhos 345 - None None - -
02/09/2018 17:19 Ice Warning 10.8F - 29F 32F 25 1% - - 99% 1 mhos 344 - None None - -
02/09/2018 17:18 Ice Warning 10.9F - 29F 32F 25 1% - - 99% 1 mhos 341 - None None - -
02/09/2018 17:09 Ice Warning 11.8F - 29F 32F 30 1% - - 99% 1 mhos 330 - None None - -
02/09/2018 17:03 Ice Warning 12.4F - 29F 32F 35 1% - - 99% 1 mhos 318 - None None - -
02/09/2018 16:59 Ice Warning 12.2F - 29F 32F 30 1% - - 99% 1 mhos 329 - None None - -
Date/Time
(MDT)
Sf
Temp Chem Water Layer Surface Precipitation
Sfc Pvt Sub Frz Factor Pct Dpth DpthThk IcePct Cond Salin FI Type Intens Accum Rate
02/09/2018 16:49 Ice Warning 12.2F - 29F 32F 25 1% - - 99% 1 mhos 330 - None None - -
02/09/2018 16:48 Ice Warning 12.2F - 29F 32F 25 1% - - 99% 1 mhos 331 - None None - -
02/09/2018 16:39 Ice Warning 13.1F - 29F 32F 25 1% - - 99% 1 mhos 314 - None None - -
02/09/2018 16:33 Ice Warning 13.8F - 29F 32F 25 1% - - 99% 1 mhos 302 - None None - -
02/09/2018 16:29 Ice Warning 14.2F - 29F 32F 25 1% - - 99% 1 mhos 297 - None None - -
02/09/2018 16:19 Ice Warning 14.5F - 29F 32F 35 1% - - 99% 1 mhos 296 - None None - -
02/09/2018 16:18 Ice Warning 14.5F - 29F 32F 35 1% - - 99% 1 mhos 295 - None None - -
02/09/2018 16:09 Ice Warning 15.8F - 29F 32F 35 1% - - 99% 1 mhos 272 - None None - -
02/09/2018 16:03 Ice Warning 16.7F - 29F 32F 50 1% - - 99% 1 mhos 261 - None None - -
02/09/2018 15:59 Ice Warning 17.2F - 29F 32F 50 1% - - 99% 1 mhos 258 - None None - -
02/09/2018 15:49 Ice Warning 17.8F - 29F 32F 55 1% - - 99% 1 mhos 255 - None None - -
02/09/2018 15:48 Ice Warning 18.0F - 29F 32F 55 1% - - 99% 1 mhos 251 - None None - -
02/09/2018 15:39 Ice Warning 18.1F - 29F 32F 65 1% - - 99% 1 mhos 242 - None None - -
02/09/2018 15:33 Ice Warning 18.5F - 29F 32F 75 1% - - 99% 1 mhos 236 - None None - -
02/09/2018 15:29 Ice Warning 18.9F - 29F 32F 80 1% - - 99% 1 mhos 248 - None None - -
Date/Time
(MDT)
Sf
Temp Chem Water Layer Surface Precipitation
Sfc Pvt Sub Frz Factor Pct Dpth DpthThk IcePct Cond Salin FI Type Intens Accum Rate
02/09/2018 15:19 Ice Warning 20.3F - 29F 32F 75 1% - - 99% 1 mhos 240 - None None - -
02/09/2018 15:18 Ice Warning 20.3F - 29F 32F 75 1% - - 99% 1 mhos 240 - None None - -
02/09/2018 15:09 Ice Warning 23.5F - 29F 32F 75 1% - - 98% 1 mhos 212 - None None - -
02/09/2018 15:03 Ice Warning 24.1F - 29F 32F 80 1% - - 98% 1 mhos 210 - None None - -
02/09/2018 14:59 Ice Warning 24.3F - 29F 32F 75 1% - - 98% 1 mhos 203 - None None - -
02/09/2018 14:48 Ice Warning 23.9F - 29F 32F 70 1% - - 98% 1 mhos 203 - None None - -
02/09/2018 14:48 Ice Warning 23.9F - 29F 32F 70 1% - - 98% 1 mhos 203 - None None - -
02/09/2018 14:38 Ice Warning 23.0F - 29F 32F 65 1% - - 98% 1 mhos 215 - None None - -
02/09/2018 14:33 Ice Warning 22.8F - 29F 32F 60 1% - - 98% 1 mhos 223 - None None - -
02/09/2018 14:28 Ice Warning 21.9F - 29F 32F 50 1% - - 98% 1 mhos 232 - None None - -
02/09/2018 14:18 Ice Warning 22.8F - 29F 32F 65 1% - - 98% 1 mhos 228 - None None - -
02/09/2018 14:18 Ice Warning 22.8F - 29F 32F 65 1% - - 98% 1 mhos 228 - None None - -
02/09/2018 14:08 Ice Warning 23.5F - 29F 32F 75 1% - - 98% 1 mhos 231 - None None - -
02/09/2018 14:03 Ice Warning 23.7F - 29F 32F 70 1% - - 98% 1 mhos 227 - None None - -
02/09/2018 13:58 Ice Warning 24.6F - 29F 32F 55 1% - - 98% 1 mhos 235 - None None - -
Date/Time
(MDT)
Sf
Temp Chem Water Layer Surface Precipitation
Sfc Pvt Sub Frz Factor Pct Dpth DpthThk IcePct Cond Salin FI Type Intens Accum Rate
02/09/2018 13:48 Ice Warning 25.7F - 29F 32F 40 1% - - 97% 2 mhos 271 - None None - -
02/09/2018 13:48 Ice Warning 25.7F - 29F 32F 40 1% - - 97% 2 mhos 271 - None None - -
02/09/2018 13:38 Ice Warning 27.3F - 29F 32F 60 1% - - 96% 2 mhos 314 - None None - -
02/09/2018 13:33 Ice Warning 27.9F - 29F 32F 55 1% - - 96% 2 mhos 343 - None None - -
02/09/2018 13:28 Ice Warning 27.3F - 29F 32F 65 1% - - 96% 2 mhos 311 - None None - -
02/09/2018 13:18 Ice Warning 27.3F - 29F 32F 80 1% - - 97% 2 mhos 276 - None None - -
02/09/2018 13:18 Ice Warning 27.3F - 29F 32F 80 1% - - 97% 2 mhos 276 - None None - -
02/09/2018 13:08 Ice Warning 25.9F - 29F 32F 75 1% - - 98% 1 mhos 228 - None None - -
02/09/2018 13:03 Ice Warning 26.2F - 29F 32F 95 1% - - 98% 1 mhos 198 - None None - -
02/09/2018 12:58 Ice Warning 25.3F - 29F 32F 85 1% - - 98% 1 mhos 183 - None None - -
02/09/2018 12:48 Ice Warning 23.7F - 29F 32F 55 1% - - 99% 1 mhos 184 - None None - -
02/09/2018 12:48 Ice Warning 23.7F - 29F 32F 55 1% - - 99% 1 mhos 184 - None None - -
02/09/2018 12:38 Ice Warning 25.5F - 29F 32F 60 1% - - 98% 1 mhos 169 - None None - -
02/09/2018 12:33 Ice Warning 24.8F - 29F 32F 65 1% - - 99% 1 mhos 167 - None None - -
02/09/2018 12:28 Ice Warning 25.7F - 29F 32F 80 1% - - 99% 1 mhos 155 - None None - -
Date/Time
(MDT)
Sf
Temp Chem Water Layer Surface Precipitation
Sfc Pvt Sub Frz Factor Pct Dpth DpthThk IcePct Cond Salin FI Type Intens Accum Rate
02/09/2018 12:18 Ice Warning 25.7F - 29F 32F 70 0% - - 99% 1 mhos 133 - None None - -
02/09/2018 12:18 Ice Warning 25.5F - 29F 32F 55 0% - - 99% 1 mhos 134 - None None - -
02/09/2018 12:08 Ice Warning 25.0F - 29F 32F 75 0% - - 99% 1 mhos 123 - None None - -
02/09/2018 12:03 Ice Warning 24.4F - 29F 32F 70 0% - - 99% 1 mhos 129 - None None - -
02/09/2018 11:58 Ice Warning 24.4F - 29F 32F 45 0% - - 99% 1 mhos 122 - None None - -
02/09/2018 11:48 Ice Warning 23.4F - 29F 32F 45 0% - - 99% 1 mhos 127 - None None - -
02/09/2018 11:48 Ice Warning 23.0F - 29F 32F 45 0% - - 99% 1 mhos 129 - None None - -
02/09/2018 11:38 Ice Warning 23.7F - 29F 32F 30 0% - - 99% 1 mhos 122 - Yes - - -
02/09/2018 11:33 Ice Warning 23.7F - 29F 32F 60 0% - - 99% 1 mhos 123 - None None - -
02/09/2018 11:28 Ice Warning 23.9F - 29F 32F 80 0% - - 99% 1 mhos 127 - None None - -
02/09/2018 11:18 Ice Warning 21.7F - 29F 32F 40 0% - - 99% 1 mhos 139 - Yes - - -
02/09/2018 11:18 Ice Warning 21.0F - 29F 32F 45 0% - - 99% 1 mhos 145 - Yes - - -
02/09/2018 11:08 Ice Warning 21.0F - 29F 32F 30 0% - - 99% 1 mhos 144 - Yes - - -
02/09/2018 11:03 Ice Warning 20.3F - 29F 32F 30 1% - - 99% 1 mhos 150 - None None - -
02/09/2018 10:58 Ice Warning 19.8F - 29F 32F 25 1% - - 99% 1 mhos 156 - None None - -
Date/Time
(MDT)
Sf
Temp Chem Water Layer Surface Precipitation
Sfc Pvt Sub Frz Factor Pct Dpth DpthThk IcePct Cond Salin FI Type Intens Accum Rate
02/09/2018 10:48 Ice Warning 19.0F - 29F 32F 15 1% - - 99% 1 mhos 160 - None None - -
02/09/2018 10:48 Ice Warning 19.0F - 29F 32F 15 1% - - 99% 1 mhos 159 - None None - -
02/09/2018 10:38 Ice Warning 18.5F - 29F 32F 15 1% - - 99% 1 mhos 164 - None None - -
02/09/2018 10:33 Ice Warning 18.1F - 29F 32F 15 1% - - 99% 1 mhos 169 - None None - -
02/09/2018 10:28 Ice Warning 18.3F - 29F 32F 15 1% - - 99% 1 mhos 170 - Yes - - -
02/09/2018 10:18 Ice Warning 17.8F - 29F 32F 10 1% - - 99% 1 mhos 176 - None None - -
02/09/2018 10:18 Ice Warning 18.0F - 29F 32F 10 1% - - 99% 1 mhos 175 - None None - -
02/09/2018 10:08 Ice Warning 17.2F - 29F 32F 10 1% - - 99% 1 mhos 186 - Yes - - -
02/09/2018 10:03 Ice Warning 17.2F - 29F 32F 10 1% - - 99% 1 mhos 187 - Yes - - -
02/09/2018 09:58 Ice Warning 16.5F - 29F 32F 5 1% - - 99% 1 mhos 192 - Yes - - -
02/09/2018 09:48 Ice Warning 14.5F - 29F 32F 5 1% - - 99% 1 mhos 214 - None None - -
02/09/2018 09:47 Ice Warning 14.5F - 29F 32F 5 1% - - 99% 1 mhos 214 - None None - -
02/09/2018 09:37 Ice Warning 15.3F - 29F 32F 5 1% - - 99% 1 mhos 210 - None None - -
02/09/2018 09:33 Ice Warning 14.0F - 29F 32F 5 1% - - 99% 0 mhos 223 - None None - -
02/09/2018 09:27 Ice Warning 13.5F - 29F 32F 5 1% - - 99% 1 mhos 234 - None None - -
Date/Time
(MDT)
Sf
Temp Chem Water Layer Surface Precipitation
Sfc Pvt Sub Frz Factor Pct Dpth DpthThk IcePct Cond Salin FI Type Intens Accum Rate
02/09/2018 09:18 Ice Warning 13.1F - 29F 32F 5 1% - - 99% 0 mhos 240 - None None - -
02/09/2018 09:17 Ice Warning 13.1F - 29F 32F 5 1% - - 99% 0 mhos 239 - Yes - - -
02/09/2018 09:07 Ice Warning 12.6F - 29F 32F 5 1% - - 99% 0 mhos 241 - None None - -
02/09/2018 09:03 Ice Warning 12.2F - 29F 32F 5 1% - - 99% 0 mhos 243 - None None - -
02/09/2018 08:57 Ice Warning 12.2F - 29F 32F 5 1% - - 99% 0 mhos 246 - Yes - - -
02/09/2018 08:48 Ice Warning 12.2F - 29F 32F 5 1% - - 99% 0 mhos 250 - None None - -
02/09/2018 08:47 Ice Warning 12.2F - 29F 32F 5 1% - - 99% 0 mhos 250 - None None - -
02/09/2018 08:37 Ice Warning 12.0F - 29F 32F 5 1% - - 99% 0 mhos 253 - None None - -
02/09/2018 08:33 Ice Warning 11.5F - 29F 32F 5 1% - - 99% 0 mhos 257 - None None - -
02/09/2018 08:27 Ice Warning 11.1F - 29F 32F 5 1% - - 99% 0 mhos 259 - Yes - - -
02/09/2018 08:18 Ice Warning 10.6F - 29F 32F 5 1% - - 99% 0 mhos 265 - None None - -
02/09/2018 08:17 Ice Warning 10.8F - 29F 32F 5 1% - - 99% 0 mhos 263 - None None - -
02/09/2018 08:07 Ice Warning 10.6F - 29F 32F 5 1% - - 99% 0 mhos 264 - Yes - - -
02/09/2018 08:03 Ice Warning 10.4F - 29F 32F 5 1% - - 99% 0 mhos 265 - Yes - - -
02/09/2018 07:57 Ice Warning 10.2F - 29F 32F 5 1% - - 99% 0 mhos 267 - Yes - - -
Date/Time
(MDT)
Sf
Temp Chem Water Layer Surface Precipitation
Sfc Pvt Sub Frz Factor Pct Dpth DpthThk IcePct Cond Salin FI Type Intens Accum Rate
02/09/2018 07:48 Ice Warning 10.2F - 29F 32F 5 1% - - 99% 0 mhos 268 - Yes - - -
02/09/2018 07:47 Ice Warning 10.2F - 29F 32F 5 1% - - 99% 0 mhos 267 - None None - -
02/09/2018 07:37 Ice Warning 10.4F - 29F 32F 5 1% - - 99% 0 mhos 264 - Yes - - -
02/09/2018 07:33 Ice Warning 10.4F - 29F 32F 5 1% - - 99% 0 mhos 266 - Yes - - -
02/09/2018 07:27 Ice Warning 10.6F - 29F 32F 5 1% - - 99% 0 mhos 263 - Yes - - -
02/09/2018 07:18 Ice Warning 10.9F - 29F 32F 5 1% - - 99% 0 mhos 261 - Yes - - -
02/09/2018 07:17 Ice Warning 11.1F - 29F 32F 5 1% - - 99% 0 mhos 256 - None None - -
02/09/2018 07:07 Ice Warning 11.3F - 29F 32F 5 1% - - 99% 0 mhos 253 - Yes - - -
02/09/2018 07:03 Ice Warning 11.5F - 29F 32F 5 1% - - 99% 0 mhos 252 - Yes - - -
02/09/2018 06:57 Ice Warning 11.5F - 29F 32F 5 1% - - 99% 0 mhos 254 - Yes - - -
02/09/2018 06:48 Ice Warning 12.0F - 29F 32F 5 1% - - 99% 0 mhos 246 - Yes - - -
02/09/2018 06:47 Ice Warning 12.2F - 29F 32F 5 1% - - 99% 0 mhos 245 - Yes - - -
02/09/2018 06:37 Ice Warning 12.7F - 29F 32F 5 1% - - 99% 0 mhos 241 - None None - -
02/09/2018 06:33 Ice Warning 13.5F - 29F 32F 5 1% - - 99% 1 mhos 233 - None None - -
02/09/2018 06:27 Ice Warning 14.4F - 29F 32F 5 1% - - 99% 1 mhos 228 - None None - -
Date/Time
(MDT)
Sf
Temp Chem Water Layer Surface Precipitation
Sfc Pvt Sub Frz Factor Pct Dpth DpthThk IcePct Cond Salin FI Type Intens Accum Rate
02/09/2018 06:18 Ice Warning 16.0F - 29F 32F 5 1% - - 99% 1 mhos 215 - Yes - - -
02/09/2018 06:17 Ice Warning 16.2F - 29F 32F 5 1% - - 99% 1 mhos 213 - Yes - - -
02/09/2018 06:07 Ice Warning 15.8F - 29F 32F 5 1% - - 99% 1 mhos 216 - Yes - - -
02/09/2018 06:03 Ice Warning 15.8F - 29F 32F 5 1% - - 99% 1 mhos 215 - None None - -
02/09/2018 05:57 Ice Warning 15.8F - 29F 32F 5 1% - - 99% 1 mhos 217 - Yes - - -
02/09/2018 05:48 Ice Warning 15.6F - 29F 32F 5 1% - - 99% 1 mhos 218 - Yes - - -
02/09/2018 05:47 Ice Warning 15.6F - 29F 32F 5 1% - - 99% 1 mhos 219 - Yes - - -
02/09/2018 05:37 Ice Warning 15.4F - 30F 32F 5 1% - - 99% 1 mhos 218 - Yes - - -
02/09/2018 05:33 Ice Warning 15.4F - 30F 32F 5 1% - - 99% 1 mhos 217 - Yes - - -
02/09/2018 05:27 Ice Warning 15.6F - 30F 32F 5 1% - - 99% 1 mhos 216 - Yes - - -
02/09/2018 05:18 Ice Warning 15.8F - 30F 32F 5 1% - - 99% 1 mhos 212 - Yes - - -
02/09/2018 05:17 Ice Warning 15.8F - 30F 32F 5 1% - - 99% 1 mhos 212 - Yes - - -
02/09/2018 05:07 Ice Warning 15.6F - 30F 32F 5 1% - - 99% 1 mhos 214 - Yes - - -
02/09/2018 05:03 Ice Warning 15.6F - 30F 32F 5 1% - - 99% 1 mhos 213 - Yes - - -
02/09/2018 04:57 Ice Warning 15.6F - 30F 32F 5 1% - - 99% 1 mhos 215 - Yes - - -
Date/Time
(MDT)
Sf
Temp Chem Water Layer Surface Precipitation
Sfc Pvt Sub Frz Factor Pct Dpth DpthThk IcePct Cond Salin FI Type Intens Accum Rate
02/09/2018 04:48 Ice Warning 16.2F - 30F 32F 5 1% - - 99% 1 mhos 213 - Yes - - -
02/09/2018 04:47 Ice Warning 16.2F - 30F 32F 5 1% - - 99% 1 mhos 216 - Yes - - -
02/09/2018 04:37 Ice Warning 15.8F - 30F 32F 5 1% - - 99% 1 mhos 220 - Yes - - -
02/09/2018 04:33 Ice Warning 15.8F - 30F 32F 5 1% - - 99% 1 mhos 219 - Yes - - -
02/09/2018 04:26 Ice Warning 15.6F - 30F 32F 5 1% - - 99% 1 mhos 219 - Yes - - -
02/09/2018 04:18 Ice Warning 15.3F - 30F 32F 5 1% - - 99% 1 mhos 220 - Yes - - -
02/09/2018 04:16 Ice Warning 15.3F - 30F 32F 5 1% - - 99% 1 mhos 220 - Yes - - -
02/09/2018 04:06 Ice Warning 15.6F - 30F 32F 5 1% - - 99% 1 mhos 212 - Yes - - -
02/09/2018 04:03 Ice Warning 15.8F - 30F 32F 5 1% - - 99% 1 mhos 209 - None None - -
02/09/2018 03:56 Ice Warning 16.5F - 30F 32F 5 1% - - 99% 1 mhos 204 - None None - -
02/09/2018 03:48 Ice Warning 17.4F - 30F 32F 5 1% - - 99% 1 mhos 198 - None None - -
02/09/2018 03:46 Ice Warning 17.4F - 30F 32F 5 1% - - 99% 1 mhos 197 - None None - -
02/09/2018 03:36 Ice Warning 17.2F - 30F 32F 5 1% - - 99% 1 mhos 198 - Yes - - -
02/09/2018 03:33 Ice Warning 17.2F - 30F 32F 5 1% - - 99% 1 mhos 200 - Yes - - -
02/09/2018 03:26 Ice Warning 17.1F - 30F 32F 5 1% - - 99% 1 mhos 203 - Yes - - -
Date/Time
(MDT)
Sf
Temp Chem Water Layer Surface Precipitation
Sfc Pvt Sub Frz Factor Pct Dpth DpthThk IcePct Cond Salin FI Type Intens Accum Rate
02/09/2018 03:18 Ice Warning 16.9F - 30F 32F 5 1% - - 99% 1 mhos 205 - Yes - - -
02/09/2018 03:16 Ice Warning 16.7F - 30F 32F 5 1% - - 99% 1 mhos 207 - None None - -
02/09/2018 03:06 Ice Warning 16.5F - 30F 32F 5 1% - - 99% 1 mhos 211 - Yes - - -
02/09/2018 03:03 Ice Warning 16.3F - 30F 32F 5 1% - - 99% 1 mhos 213 - Yes - - -
02/09/2018 02:56 Ice Warning 16.2F - 30F 32F 5 1% - - 99% 1 mhos 216 - None None - -
02/09/2018 02:48 Ice Warning 16.0F - 30F 32F 5 1% - - 99% 1 mhos 221 - None None - -
02/09/2018 02:46 Ice Warning 16.0F - 30F 32F 5 1% - - 99% 1 mhos 221 - None None - -
02/09/2018 02:36 Ice Warning 15.4F - 30F 32F 5 1% - - 99% 1 mhos 227 - Yes - - -
02/09/2018 02:33 Ice Warning 15.3F - 30F 32F 5 1% - - 99% 1 mhos 229 - Yes - - -
02/09/2018 02:26 Ice Warning 15.1F - 30F 32F 5 1% - - 99% 1 mhos 233 - Yes - - -
02/09/2018 02:18 Ice Warning 14.5F - 30F 32F 5 1% - - 99% 1 mhos 238 - Yes - - -
02/09/2018 02:16 Ice Warning 14.5F - 30F 32F 5 1% - - 99% 1 mhos 237 - Yes - - -
02/09/2018 02:06 Ice Warning 14.5F - 30F 32F 5 1% - - 99% 1 mhos 243 - Yes - - -
02/09/2018 02:03 Ice Warning 14.5F - 30F 32F 5 1% - - 99% 1 mhos 244 - Yes - - -
02/09/2018 01:56 Ice Warning 14.4F - 30F 32F 5 1% - - 99% 1 mhos 245 - Yes - - -
Date/Time
(MDT)
Sf
Temp Chem Water Layer Surface Precipitation
Sfc Pvt Sub Frz Factor Pct Dpth DpthThk IcePct Cond Salin FI Type Intens Accum Rate
02/09/2018 01:48 Ice Warning 14.7F - 30F 32F 5 1% - - 99% 1 mhos 238 - Yes - - -
02/09/2018 01:46 Ice Warning 14.5F - 30F 32F 5 1% - - 99% 1 mhos 242 - None None - -
02/09/2018 01:36 Ice Warning 14.2F - 30F 32F 5 1% - - 99% 1 mhos 248 - None None - -
02/09/2018 01:33 Ice Warning 14.2F - 30F 32F 5 1% - - 99% 1 mhos 253 - Yes - - -
02/09/2018 01:26 Ice Warning 14.2F - 30F 32F 5 1% - - 99% 1 mhos 251 - Yes - - -
02/09/2018 01:18 Ice Warning 14.0F - 30F 32F 5 1% - - 99% 1 mhos 251 - Yes - - -
02/09/2018 01:16 Ice Warning 13.8F - 30F 32F 5 1% - - 99% 1 mhos 254 - Yes - - -
02/09/2018 01:06 Ice Warning 13.6F - 30F 32F 5 1% - - 99% 1 mhos 256 - Yes - - -
02/09/2018 01:03 Ice Warning 13.6F - 30F 32F 5 1% - - 99% 1 mhos 253 - None None - -
02/09/2018 00:56 Ice Warning 13.5F - 30F 32F 5 1% - - 99% 1 mhos 258 - Yes - - -
02/09/2018 00:48 Ice Warning 13.3F - 30F 32F 5 1% - - 99% 1 mhos 261 - Yes - - -
02/09/2018 00:46 Ice Warning 13.3F - 30F 32F 5 1% - - 99% 1 mhos 261 - None None - -
02/09/2018 00:36 Ice Warning 12.9F - 30F 32F 5 1% - - 99% 1 mhos 261 - None None - -
02/09/2018 00:33 Ice Warning 12.9F - 30F 32F 5 1% - - 99% 1 mhos 259 - Yes - - -
02/09/2018 00:26 Ice Warning 12.7F - 30F 32F 5 1% - - 99% 1 mhos 263 - Yes - - -
Date/Time
(MDT)
Sf
Temp Chem Water Layer Surface Precipitation
Sfc Pvt Sub Frz Factor Pct Dpth DpthThk IcePct Cond Salin FI Type Intens Accum Rate
02/09/2018 00:18 Ice Warning 12.7F - 30F 32F 5 1% - - 99% 1 mhos 261 - None None - -
02/09/2018 00:16 Ice Warning 12.7F - 30F 32F 5 1% - - 99% 1 mhos 261 - None None - -
02/09/2018 00:06 Ice Warning 12.9F - 30F 32F 5 1% - - 99% 1 mhos 260 - Yes - - -
02/09/2018 00:03 Ice Warning 13.1F - 30F 32F 5 1% - - 99% 1 mhos 259 - None None - -
02/08/2018 23:56 Ice Warning 13.3F - 30F 32F 5 1% - - 99% 1 mhos 251 - None None - -
02/08/2018 23:48 Ice Warning 13.5F - 30F 32F 5 1% - - 99% 1 mhos 252 - Yes - - -
02/08/2018 23:46 Ice Warning 13.5F - 30F 32F 5 1% - - 99% 1 mhos 251 - None None - -
02/08/2018 23:36 Ice Warning 13.8F - 30F 32F 5 1% - - 99% 1 mhos 249 - None None - -
02/08/2018 23:33 Ice Warning 13.8F - 30F 32F 5 1% - - 99% 1 mhos 249 - None None - -
02/08/2018 23:26 Ice Warning 13.8F - 31F 32F 5 1% - - 99% 1 mhos 249 - None None - -
02/08/2018 23:18 Ice Warning 14.0F - 31F 32F 5 1% - - 99% 1 mhos 250 - None None - -
02/08/2018 23:16 Ice Warning 14.0F - 31F 32F 5 1% - - 99% 1 mhos 249 - None None - -
02/08/2018 23:06 Ice Warning 14.0F - 31F 32F 5 1% - - 99% 1 mhos 248 - Yes - - -
02/08/2018 23:03 Ice Warning 13.8F - 31F 32F 5 1% - - 99% 1 mhos 248 - Yes - - -
02/08/2018 22:55 Ice Warning 14.2F - 31F 32F 5 1% - - 99% 1 mhos 246 - None None - -
Date/Time
(MDT)
Sf
Temp Chem Water Layer Surface Precipitation
Sfc Pvt Sub Frz Factor Pct Dpth DpthThk IcePct Cond Salin FI Type Intens Accum Rate
02/08/2018 22:48 Ice Warning 14.4F - 31F 32F 10 1% - - 99% 1 mhos 245 - None None - -
02/08/2018 22:45 Ice Warning 14.4F - 31F 32F 10 1% - - 99% 1 mhos 247 - None None - -
02/08/2018 22:35 Ice Warning 14.0F - 31F 32F 10 1% - - 99% 1 mhos 259 - Yes - - -
02/08/2018 22:33 Ice Warning 13.8F - 31F 32F 10 1% - - 99% 1 mhos 261 - Yes - - -
02/08/2018 22:25 Ice Warning 14.2F - 31F 32F 10 1% - - 99% 1 mhos 254 - None None - -
02/08/2018 22:18 Ice Warning 14.0F - 31F 32F 10 1% - - 99% 1 mhos 259 - None None - -
02/08/2018 22:15 Ice Warning 14.2F - 31F 32F 10 1% - - 99% 1 mhos 256 - None None - -
02/08/2018 22:05 Ice Warning 14.2F - 31F 32F 15 1% - - 99% 1 mhos 255 - Yes - - -
02/08/2018 22:03 Ice Warning 14.2F - 31F 32F 10 1% - - 99% 1 mhos 256 - Yes - - -
02/08/2018 21:55 Ice Warning 14.2F - 31F 32F 10 1% - - 99% 1 mhos 255 - Yes - - -
02/08/2018 21:48 Ice Warning 14.0F - 31F 32F 10 1% - - 99% 1 mhos 259 - Yes - - -
02/08/2018 21:45 Ice Warning 14.0F - 31F 32F 10 1% - - 99% 1 mhos 258 - None None - -
02/08/2018 21:35 Ice Warning 14.4F - 31F 32F 15 1% - - 99% 1 mhos 257 - Yes - - -
02/08/2018 21:33 Ice Warning 14.4F - 31F 32F 15 1% - - 99% 1 mhos 254 - Yes - - -
02/08/2018 21:25 Ice Warning 14.9F - 31F 32F 15 1% - - 99% 1 mhos 252 - Yes - - -
Date/Time
(MDT)
Sf
Temp Chem Water Layer Surface Precipitation
Sfc Pvt Sub Frz Factor Pct Dpth DpthThk IcePct Cond Salin FI Type Intens Accum Rate
02/08/2018 21:18 Ice Warning 15.3F - 31F 32F 15 1% - - 99% 1 mhos 252 - Yes - - -
02/08/2018 21:15 Ice Warning 15.1F - 31F 32F 15 1% - - 99% 1 mhos 254 - Yes - - -
02/08/2018 21:05 Ice Warning 14.9F - 31F 32F 15 1% - - 99% 1 mhos 256 - Yes - - -
02/08/2018 21:03 Ice Warning 14.9F - 31F 32F 15 1% - - 99% 1 mhos 257 - Yes - - -
02/08/2018 20:55 Ice Warning 15.3F - 31F 32F 15 1% - - 99% 1 mhos 256 - Yes - - -
02/08/2018 20:48 Ice Warning 15.4F - 31F 32F 15 1% - - 99% 1 mhos 253 - Yes - - -
02/08/2018 20:45 Ice Warning 15.8F - 31F 32F 15 1% - - 99% 1 mhos 254 - Yes - - -
02/08/2018 20:35 Ice Warning 15.3F - 31F 32F 15 1% - - 99% 1 mhos 259 - Yes - - -
02/08/2018 20:33 Ice Warning 15.3F - 31F 32F 15 1% - - 99% 1 mhos 261 - Yes - - -
02/08/2018 20:25 Ice Warning 14.5F - 31F 32F 15 1% - - 99% 1 mhos 272 - Yes - - -
02/08/2018 20:18 Ice Warning 14.7F - 31F 32F 15 1% - - 99% 1 mhos 272 - Yes - - -
02/08/2018 20:15 Ice Warning 14.5F - 31F 32F 15 1% - - 99% 1 mhos 276 - Yes - - -
02/08/2018 20:05 Ice Warning 14.9F - 31F 32F 15 1% - - 99% 1 mhos 275 - Yes - - -
02/08/2018 20:03 Ice Warning 14.7F - 31F 32F 15 1% - - 99% 1 mhos 280 - Yes - - -
02/08/2018 19:55 Ice Warning 15.3F - 31F 32F 15 1% - - 99% 1 mhos 273 - Yes - - -
Change End Date:

Copyright © 1998-2015 Vaisala, Inc.
All Rights Reserved
Send comments about the data to:
SCAN Web ® is a registered trademark of Vaisala, Inc.
SCAN Web Version 6.0